OSCAR 7 (AO-7) (7530 NORAD) Tracking and Keplerian Element Data

This shows tracking and keplerian element data for the satellite.

Feedback or suggestion? Click here.




ElementValue
Catalog7530
NameOSCAR 7 (AO-7)
Epoch Orbit29808
Epoch Day34.96221162
Epoch Year2025
RAAN37.8912
Inclination101.9929
Eccentricity0.0012191
Argument of Perigee3.1591
Mean Anonmoly53.1596
Mean Motion12.53685731
Decay Rate-2.9E-07
L11 07530U 74089B 25034.96221162 -.00000029 00000+0 10606-3 0 9993
L22 07530 101.9929 37.8912 0012191 3.1591 53.1596 12.53685731298088



Live tracking and technical data element details for OSCAR 7 (AO-7) (NORAD 7530). OSCAR 7 (AO-7) can be tracked NOW for your location showing map with azimuth and elevation plus other details from your city location.







IsCatalogInMostPopularTable: catalog: 7530, numindb: 5327
Update: records affected: 1



GetName: 7530 OSCAR 7 (AO-7)

Hit Count: updated at: Thu, 13 Feb 2025 16:45:46 GMT